Tracking 19575 objects as of 19-Feb-2019
HD Live streaming from Space Station
objects crossing your sky now

THORAD DELTA 1 DEB

Track THORAD DELTA 1 DEB now!
10-day predictions


NORAD ID: 8141
Int'l Code: 1974-089K
Perigee: 1,459.9 km
Apogee: 1,600.4 km
Inclination: 101.5 °
Period: 116.5 minutes
Semi major axis: 7901 km
RCS: 0.0788 m2 (small)
Launch date: November 15, 1974
Source: United States (US)
Launch site: AIR FORCE WESTERN TEST RANGE (AFWTR)

Note: This is SATELLITE DEBRIS
aabbcc
Your satellite tracking list
Your tracking list is empty




NASA's NSSDC Master Catalog

Two Line Element Set (TLE):
1  8141U 74089K   19049.83033432 +.00000016 +00000-0 +44301-3 0  9993
2  8141 101.5061 356.3605 0088931 085.8414 342.1717 12.36145797996865
Source of the keplerian elements: AFSPC